Location: Phoenix
(33.4480°N, 112.0730°W)
Time: 01:27:02
(UTC-07:00)

ISS - All Passes

Search period start: 05 December 2016 00:00
Search period end: 15 December 2016 00:00
Orbit: 401 x 410 km, 51.6° (Epoch: 05 December)

Date Brightness Start Highest point End Pass type
(mag) Time Alt. Az. Time Alt. Az. Time Alt. Az.
05 Dec - 00:28:47 10° NW 00:32:04 71° SW 00:35:21 10° SE night (unlit)
05 Dec - 15:30:03 10° S 15:32:45 24° SE 15:35:27 10° ENE daylight
05 Dec - 17:06:24 10° W 17:09:10 25° NW 17:11:58 10° NNE daylight
05 Dec - 23:36:53 10° NW 23:40:07 50° NE 23:43:20 10° ESE night (unlit)
06 Dec - 01:15:18 10° WSW 01:16:14 11° SW 01:17:11 10° SW night (unlit)
06 Dec - 14:39:53 10° SE 14:40:58 11° SE 14:42:05 10° ESE daylight
06 Dec - 16:13:56 10° WSW 16:17:06 48° NW 16:20:19 10° NE daylight
06 Dec - 22:45:13 10° NNW 22:48:04 26° NE 22:50:54 10° E night (unlit)
07 Dec - 00:21:48 10° WNW 00:24:28 23° SW 00:27:08 10° S night (unlit)
07 Dec - 15:21:53 10° SW 15:25:08 75° SE 15:28:25 10° NE daylight
07 Dec - 17:00:29 10° NW 17:01:59 12° NNW 17:03:28 10° N daylight
07 Dec - 21:53:50 10° N 21:55:54 15° NNE 21:57:58 10° ENE night (unlit)
07 Dec - 23:29:23 10° WNW 23:32:36 51° SW 23:35:49 10° SSE night (unlit)
08 Dec - 14:30:18 10° SSW 14:33:14 32° SE 14:36:12 10° ENE daylight
08 Dec - 16:07:15 10° W 16:09:46 20° NW 16:12:18 10° NNE daylight
08 Dec - 22:37:21 10° NW 22:40:39 69° NE 22:43:55 10° SE night (unlit)
09 Dec - 13:39:26 10° SSE 13:41:24 15° SE 13:43:23 10° E daylight
09 Dec - 15:14:34 10° WSW 15:17:38 36° NW 15:20:43 10° NNE daylight
09 Dec - 21:45:34 10° NNW 21:48:35 33° NE 21:51:36 10° ESE night (unlit)
09 Dec - 23:22:37 10° W 23:24:53 17° SW 23:27:09 10° S night (unlit)
10 Dec - 14:22:20 10° SW 14:25:36 80° NW 14:28:52 10° NE daylight
10 Dec - 16:01:56 10° NW 16:02:33 10° NNW 16:03:10 10° NNW daylight
10 Dec - 20:54:01 10° NNW 20:56:26 19° NNE 20:58:51 10° E night (unlit)
10 Dec - 22:29:56 10° WNW 22:33:01 37° SW 22:36:05 10° SSE night (unlit)
11 Dec - 13:30:31 10° SSW 13:33:37 43° SE 13:36:45 10° ENE daylight
11 Dec - 15:08:04 10° WNW 15:10:16 17° NNW 15:12:28 10° N daylight
11 Dec - 20:02:57 10° N 20:04:10 12° NNE 20:05:23 10° NE night (unlit)
11 Dec - 21:37:45 10° NW 21:41:04 86° SW 21:44:21 10° SE night (unlit)
12 Dec - 12:39:15 10° S 12:41:43 20° SE 12:44:11 10° E daylight
12 Dec - 14:15:10 10° W 14:18:04 28° NW 14:20:58 10° NNE daylight
12 Dec - 20:45:50 10° NNW 20:49:00 42° NE 20:52:09 10° ESE night (unlit)
12 Dec - 22:23:33 10° W 22:25:11 13° SW 22:26:48 10° SSW night (unlit)
13 Dec - 13:22:44 10° WSW 13:25:57 58° NW 13:29:11 10° NE daylight
13 Dec - 19:54:09 10° NNW 19:56:50 23° NE 19:59:32 10° E night (unlit)
13 Dec - 21:30:27 10° WNW 21:33:18 27° SW 21:36:09 10° S night (unlit)
14 Dec - 12:30:42 10° SW 12:33:54 60° SE 12:37:08 10° NE daylight
14 Dec - 14:08:53 10° WNW 14:10:40 14° NNW 14:12:27 10° N daylight
14 Dec - 19:02:47 10° N 19:04:34 14° NNE 19:06:21 10° ENE visible
14 Dec - 20:38:04 10° NW 20:41:20 63° SW 20:44:35 10° SE night (unlit)
